EHI
0 0 0 0 0 0 1 0 0 0 0 0 0 0 0 0 1 1 1 1 2 3 5 8 9 9 9 9 7 6 6 6 5 5 5 5 4 3 3 2 1 0 0 0
0 0 0 0 0 1 1 1 0 0 0 0 0 0 0 0 0 0 0 1 2 2 4 7 9 10 10 9 7 6 5 4 4 4 4 4 4 3 3 2 1 0 0 0
0 0 0 0 0 1 2 1 0 0 0 0 0 0 0 0 0 0 0 0 1 1 2 4 7 10 11 8 6 4 4 3 3 3 3 4 4 4 3 2 1 0 0 0
0 0 0 0 0 0 1 1 0 0 0 0 0 0 0 0 0 0 0 0 0 0 1 1 4 8 9 7 4 3 3 3 3 3 4 4 4 3 3 2 1 0 0 0
0 0 0 0 0 0 0 0 0 0 0 0 0 0 0 0 0 0 0 0 0 0 0 0 2 5 7 6 4 3 3 3 3 4 4 4 3 2 1 1 0 0 0 0
0 0 0 0 0 0 0 0 0 0 0 0 0 0 0 0 0 0 0 0 1 1 0 1 1 3 5 5 4 3 3 3 3 4 4 3 1 1 0 0 0 0 0 0
0 0 0 0 0 0 0 0 0 0 0 0 0 0 0 0 0 0 0 0 1 1 1 2 3 4 5 4 3 3 3 3 3 2 2 1 0 0 0 0 0 0 0 0
0 0 0 0 0 0 0 0 0 1 1 0 0 0 0 0 0 0 0 0 1 1 2 2 2 3 4 4 3 3 3 2 1 1 0 0 0 0 0 0 0 0 0 0
0 0 0 0 0 0 0 0 0 1 1 0 0 0 0 0 0 0 0 0 0 0 1 1 1 1 2 3 3 3 1 1 0 0 0 0 0 0 0 0 0 0 0 0
0 0 0 0 0 0 0 0 0 1 1 0 0 0 0 0 0 0 0 0 0 0 0 0 0 1 1 2 3 2 1 0 0 0 0 0 0 0 0 0 0 0 0 0
0 0 0 0 0 0 0 0 0 0 0 0 0 0 0 0 0 0 0 0 0 0 0 1 1 1 1 1 2 1 0 0 0 0 0 0 0 0 0 0 0 0 0 0
0 0 0 0 0 0 0 0 0 0 1 1 0 0 0 0 0 0 0 0 0 0 0 1 1 1 1 0 0 0 0 1 1 1 0 0 0 0 0 0 0 0 0 0
0 0 0 0 0 0 0 0 0 0 1 1 0 0 0 0 0 0 0 0 0 0 0 1 1 0 0 0 0 0 0 1 2 2 1 1 0 0 0 0 0 0 0 0
0 0 0 0 0 0 0 0 0 0 0 0 0 0 0 0 0 0 0 0 0 0 0 0 0 0 0 0 0 0 0 2 3 3 3 2 1 1 0 0 0 0 0 0
0 0 0 0 0 0 0 0 0 0 0 0 0 0 0 0 0 0 0 0 0 0 0 0 0 0 0 0 0 0 0 1 2 3 3 3 3 2 1 1 0 0 0 0
0 0 0 0 0 0 0 0 0 0 0 0 0 0 0 0 0 0 0 0 0 0 0 0 0 0 0 0 0 0 0 1 1 1 2 2 2 2 2 2 1 0 0 0
0 0 0 0 0 0 0 0 0 0 0 0 0 0 0 0 0 0 0 0 0 0 0 0 0 0 0 0 0 0 0 0 0 0 1 1 1 1 2 2 1 1 1 0
0 0 0 0 0 0 0 0 0 0 0 0 0 0 0 0 0 0 0 0 0 0 0 0 0 0 0 0 0 0 0 0 0 0 0 0 0 0 1 2 2 2 2 1
0 0 0 0 0 0 0 0 0 0 0 0 0 0 0 0 0 0 0 0 0 0 0 0 0 0 0 0 0 0 0 0 0 0 0 0 0 0 0 1 2 2 2 1
0 0 0 0 0 0 0 0 0 0 0 0 0 0 0 0 0 0 0 0 0 0 0 0 0 0 0 0 0 0 0 0 0 0 0 0 0 0 0 0 1 1 1 0
0 0 0 0 0 0 0 0 0 0 0 0 0 0 0 0 0 0 0 0 0 0 0 0 0 0 0 0 0 0 0 0 0 0 0 0 0 0 0 0 0 0 0 0
1 1 0 0 0 0 0 0 0 0 0 0 0 0 0 0 0 0 0 0 0 0 0 0 0 0 0 0 0 0 0 0 0 0 0 0 0 0 0 0 0 0 0 0
0 0 0 0 0 0 0 0 0 0 0 0 0 0 0 0 0 0 0 0 0 0 0 0 0 0 0 0 0 0 0 0 0 0 0 0 0 0 0 0 0 0 0 0
0 0 0 0 0 0 0 0 0 0 0 0 0 0 0 0 0 0 0 0 0 0 0 0 0 0 0 0 0 0 0 0 0 0 0 0 0 0 0 0 0 0 0 0
0 0 0 0 0 0 0 0 0 0 0 0 0 0 0 0 0 0 0 0 0 0 0 0 0 0 0 0 0 0 0 0 0 0 0 0 0 0 0 0 0 0 0 0
0 0 0 0 0 0 0 0 0 0 0 0 0 0 0 0 0 0 0 0 0 0 0 0 0 0 0 0 0 0 0 0 0 0 0 0 0 0 0 0 0 0 0 0
0 0 0 0 0 0 0 0 0 0 0 0 0 0 0 0 0 0 0 0 0 0 0 0 0 0 0 0 0 0 0 0 0 0 0 0 0 0 0 0 0 0 0 0
Wind_Speed
4 4 4 4 6 7 5 7 8 7 6 7 5 4 3 2 3 4 4 5 6 7 7 7 7 7 7 8 8 9 9 9 9 8 7 7 7 7 6 7 7 6 6 6
1 3 4 3 3 5 4 4 4 2 4 4 2 1 0 1 3 4 4 5 5 6 7 8 8 8 8 8 8 8 8 8 7 8 8 7 7 7 6 6 6 6 6 6
2 2 4 0 3 4 3 2 5 5 5 1 1 1 1 1 2 2 3 4 6 6 6 7 8 8 9 8 7 8 7 7 8 8 8 8 8 7 7 7 6 6 6 6
4 4 4 5 1 3 4 2 1 1 1 3 3 1 1 1 1 2 3 3 5 5 5 5 6 7 7 8 8 8 8 7 8 8 8 7 7 8 7 6 6 6 6 6
4 4 2 1 0 2 3 1 2 1 2 2 2 3 3 2 1 1 2 2 3 4 5 5 6 7 8 8 8 8 8 8 8 8 8 8 8 8 6 6 6 6 5 6
5 5 5 4 1 1 4 1 2 1 2 2 2 1 2 3 2 2 1 1 2 3 4 5 5 7 8 8 8 8 8 8 8 8 8 8 8 7 5 5 6 6 5 6
4 3 3 2 4 1 4 5 1 0 1 2 2 2 1 2 3 2 3 2 3 4 4 3 5 7 7 7 8 7 6 6 7 7 7 7 6 5 5 6 5 5 5 5
4 3 4 3 2 3 3 0 1 2 2 3 2 2 3 3 4 4 4 4 4 4 4 3 4 6 6 6 5 5 6 6 6 6 6 6 6 5 6 6 6 5 5 4
4 3 1 2 1 0 2 2 1 2 2 4 3 3 4 5 5 5 4 4 4 4 4 3 3 5 5 4 4 5 6 6 5 5 5 5 6 6 5 5 5 5 4 5
3 2 1 3 3 3 3 2 2 3 3 4 4 4 5 5 4 4 4 3 3 4 4 3 2 2 2 3 5 6 6 5 5 5 5 4 4 4 5 5 5 5 5 5
3 2 3 4 4 3 4 5 6 6 5 5 5 4 4 4 4 3 3 3 3 3 3 3 3 2 2 2 4 5 5 4 5 5 5 4 3 2 3 3 4 5 4 4
3 3 3 1 1 2 5 5 5 6 6 6 5 4 4 4 3 3 3 3 3 4 4 3 4 3 3 2 3 5 4 4 3 3 4 4 4 3 4 3 3 3 3 3
2 3 4 3 3 3 4 5 5 5 5 5 4 4 4 4 4 4 4 4 3 3 3 4 4 4 3 1 3 4 4 3 3 3 3 4 4 4 3 3 5 4 2 2
4 5 4 3 3 3 5 5 6 5 4 4 4 5 5 5 5 5 4 3 3 4 5 4 5 4 2 2 3 4 4 4 3 3 3 3 3 3 3 3 2 2 3 3
3 4 4 4 4 4 4 5 6 5 5 5 5 5 6 6 6 6 5 4 5 6 5 5 5 4 3 4 5 5 4 4 3 3 3 3 3 3 3 3 3 2 2 3
4 5 5 5 5 4 4 5 6 4 4 5 6 6 6 6 6 6 7 7 7 7 5 5 6 5 4 5 6 5 5 8 6 4 4 4 4 4 3 3 3 3 2 1
4 4 4 4 4 4 4 4 4 4 5 6 6 6 6 7 8 8 8 8 8 7 7 7 6 5 6 6 7 5 5 6 8 6 5 4 4 4 3 3 3 3 2 3
3 3 3 4 5 5 4 5 5 6 6 5 6 7 8 9 8 7 7 7 9 10 10 8 7 7 8 8 7 6 6 6 5 5 5 5 5 5 4 4 4 4 3 4
5 5 5 5 5 5 5 6 6 7 7 7 8 9 9 8 7 7 7 9 10 9 8 8 10 9 9 9 9 6 7 7 7 7 6 7 6 6 5 5 5 5 4 4
6 6 7 7 7 7 7 7 8 8 7 8 9 10 10 8 7 8 9 10 7 5 5 8 9 9 9 9 10 7 8 8 8 7 7 7 7 7 6 6 6 5 5 5
7 8 9 9 9 9 9 8 9 9 8 9 10 10 9 8 8 8 8 8 7 7 8 10 8 7 7 8 10 8 8 8 8 7 7 7 7 7 7 7 6 6 5 5
7 9 10 10 10 10 9 9 10 10 10 10 10 10 10 10 9 9 9 6 5 7 7 7 7 10 10 10 8 8 8 8 8 7 7 7 7 6 7 7 6 6 5 5
8 9 10 11 11 10 10 10 10 10 10 10 10 9 9 8 6 7 7 6 6 10 8 8 10 14 13 10 8 8 9 9 8 7 7 7 6 6 6 7 6 6 5 5
10 10 10 10 11 12 11 9 9 9 10 9 9 8 8 7 7 6 6 8 11 11 9 10 14 14 12 8 8 8 8 8 8 7 7 7 7 6 6 6 6 5 5 6
10 10 10 11 11 9 9 9 10 10 10 9 10 9 7 6 6 6 6 8 11 10 9 11 14 13 10 8 8 8 7 7 7 7 7 7 6 6 6 5 5 5 5 5
9 8 8 8 8 7 7 7 7 7 7 8 7 7 7 6 7 7 7 9 11 10 8 7 8 9 8 8 8 8 7 7 7 7 7 6 7 6 6 6 7 6 5 5
10 9 8 8 7 7 7 7 8 7 7 7 7 6 6 7 7 8 8 7 8 8 7 7 7 7 7 7 7 7 7 6 6 6 6 6 6 5 5 6 5 5 5 5
Wind_Direction
188 176 155 166 167 166 166 174 177 214 215 245 239 228 230 198 168 167 175 180 181 177 171 167 166 169 170 167 166 166 168 175 181 176 170 170 171 177 179 180 185 183 180 183
110 143 133 123 158 164 169 168 179 171 251 255 238 139 65 192 169 183 192 195 191 183 174 173 174 174 169 167 166 162 170 178 172 166 169 174 176 177 177 181 179 177 183 186
163 148 88 246 221 173 161 171 163 192 223 179 115 144 229 233 192 187 203 200 193 189 185 181 176 172 171 169 161 165 174 175 170 170 175 178 177 177 182 181 177 182 188 188
128 115 175 238 283 137 120 64 47 179 180 163 168 162 53 347 232 233 215 199 194 190 186 178 168 164 163 159 164 170 176 177 173 173 178 176 176 182 183 176 179 186 191 193
119 142 187 265 71 118 123 45 2 157 140 129 125 59 19 4 335 261 223 197 188 187 179 163 163 161 156 160 164 171 179 182 179 176 177 178 184 186 181 176 183 187 188 190
118 136 197 225 288 333 102 339 318 140 158 145 102 88 293 339 355 4 33 104 134 137 133 149 164 156 155 163 168 181 185 183 177 176 178 183 187 184 177 178 188 187 193 196
123 147 243 294 303 76 152 217 272 29 160 134 129 177 279 1 24 40 51 70 107 113 124 150 156 154 161 167 181 183 171 166 168 173 178 180 179 177 172 176 178 187 197 204
129 144 231 331 22 141 192 163 86 68 90 105 96 56 40 49 46 45 49 60 84 99 101 112 139 151 162 178 175 155 155 160 168 172 178 178 174 177 175 175 182 193 200 213
151 170 260 353 83 85 126 113 97 90 93 108 89 54 46 42 39 42 45 54 72 93 97 91 121 146 164 173 147 146 153 163 166 166 174 171 176 178 175 179 189 199 203 216
95 82 50 28 33 40 64 90 85 100 101 94 82 56 48 43 35 33 37 48 66 90 99 96 102 123 144 143 147 147 160 169 167 167 169 168 171 176 179 186 193 200 205 213
107 123 71 33 26 45 70 75 74 74 80 85 83 60 53 45 33 39 40 42 64 86 100 96 94 91 98 132 150 156 162 168 170 171 169 164 157 156 180 187 196 196 206 204
180 184 143 139 19 59 75 71 76 82 69 64 79 75 61 47 29 38 44 43 54 63 74 82 88 80 69 98 139 146 150 158 163 163 161 155 148 118 63 88 106 142 161 171
145 114 114 111 77 75 81 82 79 78 82 74 65 74 68 53 35 38 44 49 54 63 74 82 82 73 56 76 116 128 138 145 149 153 156 159 160 161 144 76 66 68 79 136
112 105 95 93 98 83 89 89 79 68 62 72 71 70 68 59 47 38 31 27 55 71 73 76 77 70 57 82 100 111 116 117 122 133 138 143 148 152 149 141 118 68 49 76
70 97 119 114 99 86 86 91 84 71 67 63 66 71 69 61 45 29 21 31 58 66 69 75 73 58 54 79 88 92 96 95 97 100 103 108 111 113 119 126 119 101 78 61
92 94 103 106 112 105 96 97 96 86 77 73 71 67 66 66 54 39 36 44 56 51 50 63 63 54 62 77 83 81 80 81 85 89 90 92 97 102 102 103 105 108 94 74
117 117 115 110 109 101 96 99 105 96 82 77 75 73 71 67 58 48 43 47 56 53 46 50 50 53 62 71 80 79 77 78 75 78 80 85 89 91 93 94 89 83 75 61
116 127 131 132 122 108 92 88 93 96 94 87 79 75 70 68 63 54 47 53 57 51 42 40 49 61 63 65 71 73 75 73 71 73 72 72 74 75 76 79 79 78 69 65
105 109 106 101 104 106 98 90 90 90 89 87 84 79 74 69 65 61 57 61 59 50 29 30 44 57 60 62 69 70 72 72 69 66 66 68 70 69 68 69 67 65 66 65
103 105 104 96 92 96 97 93 92 87 84 88 87 82 76 68 65 65 65 60 47 44 39 44 50 52 54 61 68 69 70 71 70 68 67 66 65 64 62 63 62 60 58 57
106 104 104 99 92 88 90 92 90 85 80 81 84 84 81 72 64 64 68 61 33 35 52 55 55 55 56 60 64 67 69 70 69 66 64 64 65 65 63 61 57 54 54 52
104 103 101 99 95 88 83 84 86 86 83 81 79 80 79 73 68 65 59 58 45 45 57 58 58 61 63 64 63 65 66 67 66 65 65 64 64 65 63 60 58 53 50 48
103 102 99 99 97 93 85 82 84 86 85 83 81 79 78 72 66 74 66 44 50 55 59 59 62 63 65 65 63 63 65 65 65 65 64 62 61 60 59 56 52 48 45 42
100 98 98 99 97 93 87 81 80 81 81 78 74 75 80 80 68 60 69 63 62 64 64 60 61 63 65 66 65 64 63 64 64 64 64 62 60 58 56 54 51 45 43 42
97 97 98 97 94 92 92 90 84 79 78 74 68 64 64 70 78 71 66 65 63 66 66 59 59 60 62 65 65 64 63 63 65 64 61 60 58 58 55 52 48 43 39 37
93 90 86 86 91 95 94 91 87 82 82 79 70 64 65 66 68 68 66 64 62 62 62 58 58 60 62 64 64 65 64 62 61 60 59 59 58 57 53 47 44 39 35 33
88 87 85 82 77 80 86 88 89 84 83 89 84 72 70 70 70 67 65 64 63 61 59 57 61 64 65 64 64 63 62 59 58 57 56 53 51 50 48 46 41 35 30 29